Home > Weather > Gunsan > Past weeks

Flag for South Korea Past Weather in Gunsan, South Korea — Yesterday and Last 2 Weeks

Now
68 °F

Fog.


Feels Like: 68 °F
Forecast: 66 / 79 °F
Wind: 5 mph from Southeast

Location: Kunsan Ab

Current Time: Jun 27, 2016 at 4:01:30 AM

Latest Report: Jun 27, 2016 at 2:59 AM


Visibility: 5 mi

Pressure: 29.84 "Hg

Humidity: 100%

Dew Point: 68 °F

Location of GunsanLocation

Past Weather in Gunsan — Graph

°F

Gunsan Temperature Yesterday

Maximum temperature yesterday: 79 °F (at 2:58 PM)
Minimum temperature yesterday: 66 °F (at 5:03 AM)
Average temperature yesterday: 73 °F

High & Low Weather Summary for the Past Weeks

 TemperatureHumidityPressure
High83 °F (Jun 22, 12:58 PM)100% (Jun 12, 9:58 PM)29.92 "Hg (Jun 12, 9:58 PM)
Low64 °F (Jun 17, 5:04 AM)58% (Jun 17, 3:58 PM)29.44 "Hg (Jun 24, 10:04 AM)
Average73 °F85%29.70 "Hg
* Reported Jun 12 11:03 AM — Jun 27 2:59 AM, Gunsan, Weather by CustomWeather, © 2016

Note: Actual official high and low records may vary slightly from our data, if they occured in-between our weather recording intervals... More about our weather records

Advertising

Gunsan Weather History for the Previous 24 Hours

Scroll right to see more
 ConditionsComfort  
Time TempWeatherWind HumidityBarometerVisibility
2:59 AM
Mon, Jun 27
68 °FFog.5 mph100%29.84 "Hg5 mi
2:58 AM68 °FFog.5 mph100%29.85 "Hg5 mi
1:58 AM70 °FClear.3 mph89%29.86 "Hg8 mi
12:58 AM70 °FClear.3 mph91%29.86 "Hg10 mi
11:58 PM
Sun, Jun 26
72 °FClear.3 mph82%29.88 "Hg10 mi
10:58 PM71 °FClear.5 mph86%29.88 "Hg10 mi
9:58 PM72 °FClear.No wind83%29.88 "Hg10 mi
8:58 PM72 °FClear.2 mph83%29.86 "Hg10 mi
7:58 PM74 °FClear.5 mph81%29.84 "Hg10 mi
6:58 PM76 °FSunny.7 mph74%29.82 "Hg10 mi
5:58 PM77 °FSunny.12 mph70%29.83 "Hg10 mi
4:58 PM77 °FSunny.9 mph71%29.83 "Hg10 mi
3:58 PM78 °FSunny.14 mph72%29.82 "Hg10 mi
2:58 PM79 °FPassing clouds.10 mph72%29.82 "Hg10 mi
1:58 PM79 °FPassing clouds.10 mph71%29.82 "Hg10 mi
12:58 PM78 °FScattered clouds.10 mph71%29.83 "Hg10 mi
11:58 AM78 °FPassing clouds.9 mph73%29.84 "Hg10 mi
10:58 AM77 °FPassing clouds.10 mph73%29.84 "Hg10 mi
9:58 AM76 °FSunny.12 mph74%29.84 "Hg10 mi
8:58 AM75 °FSunny.8 mph77%29.84 "Hg10 mi
7:58 AM73 °FSunny.6 mph83%29.84 "Hg10 mi
6:58 AM71 °FSunny.3 mph85%29.82 "Hg10 mi
5:58 AM68 °FSunny.No wind89%29.82 "Hg8 mi
5:03 AM66 °FClear.No wind94%29.79 "Hg9 mi
4:58 AM67 °FClear.No wind91%29.80 "Hg9 mi
Weather by CustomWeather, © 2016

See weather overviewHow to use our weather pages